User: anonymous   Login
Location: Unspecified
(40.7945°N, 111.1337°W)
Time: 20:06:06
(UTC-06:00)
Language:

Tiros 1 - Orbit

View from above orbital plane
View from above orbital plane
View from above satellite
View from above satellite

Ground track
Ground track

The orbit data is extracted from the following two-line orbital elements,

1    29U 60002B   19176.49113313 -.00000170  00000-0  56743-5 0  9997
2    29  48.3780 197.8883 0023669 142.4677 217.7892 14.74308203165846
Epoch (UTC): 25 June 2019 11:47:13
Eccentricity: 0.0023669
inclination: 48.3780°
perigee height: 631 km
apogee height: 664 km
right ascension of ascending node: 197.8883°
argument of perigee: 142.4677°
revolutions per day: 14.74308203
mean anomaly at epoch: 217.7892°
orbit number at epoch: 16584

The dashed part of the orbit path shows where the satellite is in the earth's shadow,  

DLR